Regional Weather Roundup
Issued by NWS Boston, MA

Home | Current Version | Previous Version | Text Only | Print | Product List | Glossary On
Versions: 1 2 3 4 5 6 7 8 9 10 11 12 13 14 15 16 17 18 19 20 21 22 23 24 25 26 27 28 29 30 31 32 33 34 35 36 37 38 39 40 41 42 43 44 45 46 47 48 49 50
000
ASUS41 KBOX 241810
RWRBOX

REGIONAL WEATHER ROUNDUP
NATIONAL WEATHER SERVICE TAUNTON MA
100 PM EST FRI FEB 24 2017

NOTE:  "FAIR" INDICATES FEW OR NO CLOUDS BELOW 12,000 FEET WITH NO
SIGNIFICANT WEATHER AND/OR OBSTRUCTIONS TO VISIBILITY.

MAZALL-241900-
EASTERN MASSACHUSETTS

CITY           SKY/WX    TMP DP  RH WIND       PRES   REMARKS
BOSTON         PTSUNNY   71  54  54 S20       29.87F
6HR MIN TEMP:  46; 6HR MAX TEMP:  71;

BEVERLY        MOSUNNY   66  52  60 E7        29.87F
LAWRENCE       MOSUNNY   70  53  54 SW20G29   29.89F
BEDFORD        CLOUDY    71  49  45 SW15G28   29.86F
BLUE HILL        N/A     69  52  54 S20G29    29.88F
NORWOOD        MOSUNNY   72  53  51 SW15G25   29.88F
MARSHFIELD     MOSUNNY   72  54  53 SW13G28   29.89F
PLYMOUTH       SUNNY     69  50  50 SW18G26   29.92F
TAUNTON        NOT AVBL
NEW BEDFORD    SUNNY     67  51  56 SW15G28   29.93F
$$

MAZALL-241900-
CAPE COD AND THE ISLANDS

CITY           SKY/WX    TMP DP  RH WIND       PRES   REMARKS
FALMOUTH       SUNNY     64  52  63 MISG      29.96F
HYANNIS        MOSUNNY   60  50  69 S13G22    29.95F
CHATHAM        SUNNY     54  48  80 SW10G20   29.98F
PROVINCETOWN   MOSUNNY   60  50  69 S20       29.93F
NANTUCKET      SUNNY     53  46  77 SW14      29.99F
MARTHAS VNYRD  SUNNY     62  51  67 SW16G22   29.97F
$$

MAZALL-241900-
CENTRAL AND WESTERN MASSACHUSETTS

CITY           SKY/WX    TMP DP  RH WIND       PRES   REMARKS
WORCESTER      MOSUNNY   67  49  52 SW21G31   29.88F
6HR MIN TEMP:  51; 6HR MAX TEMP:  67;

FITCHBURG      MOSUNNY   69  52  54 S10G16    29.87F
ORANGE         SUNNY     65  52  62 S14G22    29.85F
SPRINGFIELD    MOSUNNY   70  52  52 S21G26    29.85F
WESTFIELD      SUNNY     69  52  54 S20       29.85F
NORTH ADAMS    CLOUDY    69  50  50 SW8       29.83F
PITTSFIELD     MOSUNNY   67  50  54 SW8       29.84F
$$

RIZALL-241900-
RHODE ISLAND

CITY           SKY/WX    TMP DP  RH WIND       PRES   REMARKS
PROVIDENCE     CLOUDY    71  51  49 SW17G28   29.92F
6HR MIN TEMP:  48; 6HR MAX TEMP:  71;

NEWPORT        MOSUNNY   57  51  80 S10G18    29.95F
BLOCK ISLAND   CLOUDY    56  50  80 SW14      29.97F
SMITHFIELD     MOSUNNY   70  53  54 S9G21     29.91F
WESTERLY       CLOUDY    60  49  66 SW13      29.96F
$$

CTZALL-241900-
CONNECTICUT

CITY           SKY/WX    TMP DP  RH WIND       PRES   REMARKS
BRADLEY INTL   MOSUNNY   71  52  50 S15       29.88F
6HR MIN TEMP:  43; 6HR MAX TEMP:  71;

HARTFORD       SUNNY     70  53  54 S16G23    29.89F
BRIDGEPORT     SUNNY     61  50  67 E6        29.92F
DANBURY        SUNNY     69  52  54 S13G21    29.90F
GROTON         SUNNY     58  49  72 S6        29.94F
NEW HAVEN      SUNNY     60  49  66 S9        29.92F
CHESTER        FAIR      66  52  59 S12G18    29.93F
MERIDEN        SUNNY     69  53  56 S17G23    29.90F
WILLIMANTIC    SUNNY     71  53  52 S17G24    29.91F
OXFORD         MOSUNNY   68  52  56 SW12G17   29.92F
$$

MEZ002-015-021-024-NHZ003-005-008-011-012-014-VTZ005-008-241900-
NORTHERN NEW ENGLAND

CITY           SKY/WX    TMP DP  RH WIND       PRES   REMARKS
PORTLAND ME    CLOUDY    45  44  97 E6        29.89F FOG
6HR MIN TEMP:  38; 6HR MAX TEMP:  49; 6HR PCP:  0.03;

BANGOR ME      CLOUDY    54  40  59 S9        29.88F
CONCORD NH     SUNNY     58  50  75 S7        29.87F
MANCHESTER NH  PTSUNNY   60  50  69 CALM      29.86F
NASHUA NH      PTSUNNY   67  53  61 VRB3      29.87F
PORTSMOUTH NH  PTSUNNY   53  52  98 CALM      29.87F
JAFFREY NH     MOSUNNY   63  50  62 SW15G24   29.87F
KEENE NH       MOSUNNY   51  49  92 W3        29.88F
BURLINGTON VT  CLOUDY    43  39  86 NW5       29.84F
MT. WASHINGTON FOG       39  39 100 SW51G62     N/A  VSB 1/16WCI  24
$$

NYZ052-076-241900-
EASTERN NEW YORK

CITY           SKY/WX    TMP DP  RH WIND       PRES   REMARKS
ALBANY         CLOUDY    69  52  54 S12       29.81F
6HR MIN TEMP:  43; 6HR MAX TEMP:  69; 6HR PCP: TRACE;

NEW YORK CITY  MOSUNNY   68  52  56 S14       29.89F
6HR MIN TEMP:  53; 6HR MAX TEMP:  69;

$$

ANZALL-241900-
MARINE OBSERVATIONS

STATION/POSITION TIME  TEMP    WIND        PRES    VSBY  WAVE
                       AIR SEA DIR/SP/G                  HT/PER
                 (UTC) (F)     (DEG/KT/KT) (MB)    (MI)  (FT/S)
BOSTON BUOY      1750   55 43  180/  8/ 10 1011.5F         3/10
BUZZARDS BAY     1700   48     220/ 13/ 14 1015.8F
NANTUCKET SOUND  1750   44 40  210/  8/ 10 1015.1F         1/12
MASS BAY-STELLWA 1704   45 42  170/  8/ 10 1011.9F         3/11
ISLE OF SHOALS   1800   54     180/ 17/ 18 1011.4F
S OF BLOCK IS    1755      44                N/A           3/12
$$

......................KEY.........................
  SKY/WX - SKY CONDITION/PRESENT WEATHER
  TMP    - TEMPERATURE IN FAHRENHEIT
  DWPT   - DEWPOINT IN FAHRENHEIT
  RH     - RELATIVE HUMIDITY IN PERCENT
  WIND   - DIRECTION AND SPEED IN MPH
  PRES   - MEAN SEA LEVEL PRESSURE IN INCHES OF HG
  WCI    - WIND CHILL INDEX
  VSB    - VISIBILITY IN MILES
  HX     - HEAT INDEX
  TC     - TEMPERATURE IN CELSIUS
  VRB    - VARIABLE WIND DIRECTION
  N/A    - NOT AVAILABLE



USA.gov is the U.S. government's official web portal to all federal, state and local government web resources and services.